顯示廣告
隱藏 ✕
※ 本文為 MindOcean 轉寄自 ptt.cc 更新時間: 2018-12-07 11:03:01
看板 Gossiping
作者 LP38CM (Love & Peace)
標題
 [新聞] 北市驗票過半 丁翻盤恐無望

時間 Fri Dec  7 09:29:21 2018


1.媒體來源:

蘋果日報

2.完整新聞標題:

北市驗票過半 丁翻盤恐無望

3.完整新聞內文:

【李奕緯╱台北報導】

       台北市長選舉驗票作業昨進行到第4天,累積驗票872箱,進度逾55%,依目前進度
最快下周二就會有結果。外傳國民黨候選人丁守中與無黨籍台北市長柯文哲驗票票數加減
不到10票,丁陣營獲悉澄清「加減票數應超過10票」。律師林俊峰分析,要透過驗票翻盤
機會不高,丁的主戰場應在未來選舉無效訴訟。


        台北地院昨天公布第4天驗票成果,4天累積已驗完238個投開票所,共872個票箱
,包括大安、文山、內湖、士林、松山區都已依序驗完,整個驗票進度已完成過半,速度
相當快。


「揭選務瑕疵更重要」
        不過,由於雙方近日經常針對可看到指紋的選票爭執是無效票,法院為便利法官
、律師認定爭議票上的指紋,特別準備放大鏡、手電筒擺在大禮堂講台前,請有需要的法
官帶著爭議票到台前使用放大鏡、手電筒辨識。為避免各組頻繁使用,拖慢驗票進度,庭
長還特別宣導「真的沒辦法認定才拿過來。」


        昨天驗票現場傳出耳語指,驗票前3天雙方票數互有增減,但得票數加減其實不
超過10票。丁營發言人詹為元為此特別澄清指出,實際數字應該超過10票,礙於法庭的封
口令,他不方便講實際的票數。


        詹為元強調,票數的增減雖然重要,更重要的是發現選務工作的瑕疵,譬如前2
天發現的領票只蓋指印未簽章,及後來發現有票匭外記載的票數與票匭內實際拿出來的票
數兜不攏。


丁營:視結果定策略

        媒體追問丁陣營,是否已把重點放在選舉無效訴訟?詹為元表示,驗票本來就是
訴訟策略的一環,他們會視驗票結果,來決定接下來訴訟策略。而丁陣營律師莫詒受訪也
強調,此次驗票除了追求得票數增減,更重要是凸顯選務疏失問題。


        律師林俊峰分析,本來丁陣營想靠驗票翻盤的機會就不高,因為目前選務人員都
經過挑選,大部分都是公務員擔任,且開票過程採亮票加唱票,現場都會有民眾及候選人
派的監票部隊在看,你唱票講錯或看錯,人家當場就會提出質疑,要錯到3千多票的機率
真的不高,等驗票結果出爐後,丁守中陣營應該會再提出選舉無效之訴,那才是全案的主
戰場。

北市長選舉 驗票4天爭議表

●第1天

有選票同時圈選2號丁守中、5號李錫錕,柯營爭執是無效票,丁營爭執是印泥拓染

●第2天

大安區一個票匭遺失約60張選票,北院緊急找到,其實是60張空白票誤與市議員票放在一


●第3天

領選票應該要蓋章,但丁營發現有人只蓋手指印就領票,選務人員也沒有依規定簽章核實

●第4天


丁營認為驗票後暴露越來越多選務瑕疵,票匭外記載的票數與票匭內實際的票數兜不攏
資料來源:《蘋果》採訪整理


4.完整新聞連結 (或短網址):

https://today.line.me/TW/article/lJW3EG?utm_source=copyshare
北市驗票過半 丁翻盤恐無望
[圖]
【李奕緯╱台北報導】台北市長選舉驗票作業昨進行到第4天,累積驗票872箱,進度逾55%,依目前進度最快下周二就會有結果。外傳國民黨候選人丁守中與無黨籍台北市長柯文哲驗票票數加減不到10票,丁陣營獲悉澄清「加減票數應超過10票」。律師林俊峰分析,要透過驗票翻盤機會不高,丁的主戰場應在未來選舉無效訴訟。 ...

 


5.備註:

五點聲明:

一、柯P派了這麼多律師到場 是在害怕什麼?

二、台灣人民需要真相

三、怎麼可能連連公子都輸

四、主戰場在凱達格蘭

五、選舉無效~~(叭~~)


#民主風度
#覺得不輸

https://i.imgur.com/CPA3FvI.jpg
[圖]
 

--
--
※ 發信站: 批踢踢實業坊(ptt.cc), 來自: 61.226.93.74
※ 文章網址: https://www.ptt.cc/bbs/Gossiping/M.1544146164.A.C7A.html
corlos: 士林北投文山都驗完的確沒戲1F 12/07 09:29
mecca: 夜市甚麼時候開?我要去逛QQ2F 12/07 09:30
corlos: 更正,沒北投3F 12/07 09:30
BILLYTHEKID: 丁丁好了啦 再下去連鍋貼都沒有4F 12/07 09:30
kent: 早就知道了還浪費錢去驗票5F 12/07 09:30
shcjosh: 丁:多10票 心滿意足6F 12/07 09:30
SonyXperiaZ3: 夜市開下去7F 12/07 09:30
SungHyun: 民主被偷走了 台北再空轉4年  台灣沒救了8F 12/07 09:30
fan8512: \開夜市/\開夜市/\開夜市/9F 12/07 09:30
PanaS0Nic: 不是蓋手印可以代替蓋印章嗎?10F 12/07 09:31
yaowei2010: 好啦 丁丁快下去 好嗎 浪費我們的錢11F 12/07 09:31
s6210603: XDD12F 12/07 09:31
yaya:                                   大丁小傳  寫的都是真的13F 12/07 09:31
hoodi: 垃圾丁守中 藍營屠醒哲 廢物14F 12/07 09:31
pinhanpaul: 多10票是多300元嗎XD15F 12/07 09:31
kodwsg: 蓋手印不是本來就可以嗎?16F 12/07 09:32
briat2004: subuki17F 12/07 09:32
bewd3000: 不能蓋手印???   彰化這邊很多人都沒帶印章只蓋手印耶18F 12/07 09:32
sagem29: 超過十張     11張吧19F 12/07 09:32
pices: 開夜市囉 先批一波香腸20F 12/07 09:32
whiteflora6: 叮叮 我們回家了好嗎?該換紙尿布了21F 12/07 09:32
jackchen1025: 什麼害怕啦?這叫謹慎 像你的丁丁一樣該該叫嗎?22F 12/07 09:32
hoodi: 直接打訴訟還比較理直氣壯 廢物丁23F 12/07 09:32
sai1268: 為什麼不能蓋手印???24F 12/07 09:33
jeff0025: 全台灣只要有蓋手印的重選25F 12/07 09:33
AKAHOSHI: 有夠廢26F 12/07 09:34
yaowei2010: 對阿 本來就能蓋手印阿27F 12/07 09:34
RachelMcAdam: 好了啦28F 12/07 09:34
scorpio0920: 支持丁守中,全國重新投票29F 12/07 09:35
tctv2002: 為了幾十張票 花了一堆人力 噁心丁丁30F 12/07 09:35
REVERSI: 丁丁準備退出政壇嘍31F 12/07 09:35
LoveMakeLove 
LoveMakeLove: 擊潰丁守中!!32F 12/07 09:35
AllenHuang: 郝龍斌:擊潰丁守中!33F 12/07 09:36
dahlia7357: 加減超過十張    柯P+10張的機率是50%34F 12/07 09:36
pierreqq: 落選進度: 55%35F 12/07 09:36
candysagaboy: 如果輸不起可以不要出來選阿36F 12/07 09:36
pikajoke: 丁老先生 退休吧 不要亂了37F 12/07 09:37
spring53287: 留在1124那天的男人38F 12/07 09:37
ayann718: 我也蓋手印39F 12/07 09:37
chyou2003: 蓋手印後選務人員要蓋章40F 12/07 09:37
sagem29: 坐等四年後重選41F 12/07 09:37
polanco: 真可憐42F 12/07 09:37
qazxsw0125: 郝龍斌:擊潰丁守中!43F 12/07 09:37
chyou2003: 不過北市很少人蓋手印吧,所以遇到了選務人員可能不熟44F 12/07 09:38
roea68roea68: 擊潰丁守中45F 12/07 09:38
qqqmmm: 國民黨都是這個調調46F 12/07 09:38
tulian: 圖片丁丁的背後靈XDDDDD47F 12/07 09:38
cx3373: 丁丁要學他老大連爺爺輸不起要亂了哦48F 12/07 09:38
noir: 一堆智障深綠丁看到開票棄姚保丁好嗎 看看那個國之將亡必有O49F 12/07 09:38
emial5566: 醒醒吧 慕榮丁50F 12/07 09:38
jisson: 陳英鈐、林欽榮辦不好選務就去吃屎吧,躲回去學校也沒用51F 12/07 09:38
chyou2003: 所以忘了蓋,丁丁想用這種小瑕疵為理由重選?52F 12/07 09:38
polanco: 幹 看照片才知道丁守中真的哭了 好慘QQ53F 12/07 09:38
flyslam: 凱道好久沒開夜市啦  香腸烤起來~~~~~~~~~~~~~~54F 12/07 09:39
Qooking: 大家還記得選前的柯萊兒 喜韓兒 還有現在的55F 12/07 09:39
chyou2003: 去看民視三立的民調吧,顆顆,看了你絕對相信這些人會56F 12/07 09:39
repot: 來亂的 越亂越難看.....57F 12/07 09:39
Qooking: 丁能兒嗎58F 12/07 09:39
chyou2003: 棄姚保丁59F 12/07 09:39
beartsubaki: 查了新聞 "沒有攜帶印章者可以用簽名、蓋手印取代"60F 12/07 09:39
BaRanKa: 不要讓蔣萬安幫你擦屁股61F 12/07 09:40
Qooking: 大家還記得選前的柯萊兒 喜韓兒 還有現丁能兒62F 12/07 09:40
coffee112: 連勝文都輸,真的是虰虰63F 12/07 09:40
oaoa0123: 丁丁真的是垃圾 投票本來就只需帶身分證64F 12/07 09:40
Qooking: 嗎?65F 12/07 09:40
butt1106: 全台重選!!!耶66F 12/07 09:40
Galm: 第三天對蓋手印有異議的那個是台灣人嗎? 不知道能蓋手印?67F 12/07 09:40
Benbenyale: 柯:喔 !這樣喔68F 12/07 09:41
DJRobin: 丁丁已經落選上癮了吧? 還想再體驗一次69F 12/07 09:41
GHOSTDOG: 不能蓋手印??那可能大家都要重選一次了..(支持70F 12/07 09:41
Qooking: 這些人是誰 什麼立場 為什麼風格這麼近71F 12/07 09:41
candysagaboy: 下次記得幫太子蔣萬安助選72F 12/07 09:41
windwang: 詹先生在這篇的說法跟我昨天看到的那篇一樣呢XD73F 12/07 09:42
Galm: 不知道沒帶印章的可以用蓋指印替代嗎? 我都是這樣蓋的74F 12/07 09:42
Galm: 不講還好,一講只會讓人對丁丁更看衰尾而已 輸不起到這地步
gz: 丁能兒快點退出政壇好不好76F 12/07 09:43
Whiteplus: 再繼續啊77F 12/07 09:43
holygoner: 超過10票.... 這是小學生鬧脾氣嗎?78F 12/07 09:43
DJRobin: 如果一堆小瑕疵就能讓選舉無效,此例一開,以後沒完沒了79F 12/07 09:44
wantin1122: 喔,這樣喔80F 12/07 09:44
salazopyrin: 從一開就無望 又不是差30票81F 12/07 09:44
shi1234: 他沒錢開夜市啦   黨中央不會鳥他82F 12/07 09:45
demonsoul: 有多遠 滾多遠83F 12/07 09:45
Crazyfire: 超過10票 多300塊對小學生真得算很多了84F 12/07 09:45
princeguitar: 丁丁: 我要鬧 我要吵 我的人生不能這樣結束啊~~~~~~85F 12/07 09:46
jacky336: 實際加減超過十票,但沒說誰多誰少,所以丁的律師心虛了86F 12/07 09:46
ace4: 下次再來吧……87F 12/07 09:47
jacky336: ?88F 12/07 09:47
Galm: 陳菊和黃俊英差距票數更少,驗票也沒有被搞到像這次刁89F 12/07 09:47
coolp77: 你家都在挺2022萬安了,你還再2018選舉無效90F 12/07 09:47
cvnn: 不曉得在鬧什麼 台北市做票 就不是柯上了91F 12/07 09:47
hate56: 幹幹幹幹幹 真的要退出政壇了啦 〒△〒92F 12/07 09:47
annekao: 輸不起的...有夠可悲93F 12/07 09:48
Maninck: 我比較好奇的是差9票的正妹,有翻嗎?94F 12/07 09:48
ilsr: 丁:驗1次多10張,驗300次不就翻盤了嗎!95F 12/07 09:48
Ajisai: 可以蓋手印 但是要2個選務人員簽章確認表示有核對過身分96F 12/07 09:48
eko112: 第二名退出政壇別掙扎了,第三名都退了97F 12/07 09:49
Ajisai: 不然選舉人名冊翻開 每個蓋手印的 你怎知是不是本人領票?98F 12/07 09:49
Ajisai: 把本人找來核對手印?XD
Krait43: 擊潰丁守中100F 12/07 09:50
Drkate: 不能蓋手指?老家鄉下都可以蓋手指耶101F 12/07 09:51
rays11590: 歹戲拖棚102F 12/07 09:52
Merman19: 丁奶中103F 12/07 09:52
rainxo6p: 夜市開起來!!104F 12/07 09:52
dss1017: 這次直接打掉大安文山,看來大勢底定囉105F 12/07 09:53
ps124125288: 早就預料到了,翻盤?做夢!106F 12/07 09:53
enkidu0830: https://i.imgur.com/o7rdjht.jpg107F 12/07 09:54
[圖]
 
flyinmagic: 人一藍腦就殘 果然果然108F 12/07 09:54
enkidu0830: 歲月是一把殺豬刀109F 12/07 09:54
hellodio: 輸不起,乖乖吞下去啦110F 12/07 09:55
morgan860320: 本來就不可能有監票還錯成那樣111F 12/07 09:57
morgan860320: 還馬後炮是要凸顯選務疏失問題
ppttpptt: 丁真的不是普通丟臉113F 12/07 09:58
blpapf: 有誰覺得有望嗎XDD114F 12/07 09:58
qmzoak: 馬戲團團長:丁丁啊 ,姚姚不在小丑換你演115F 12/07 09:58
h916041: 丁丁你別在拖台錢了,快點實現退出政壇諾言吧116F 12/07 09:58
cms6384: 頂多十票內有問題 還不一定是投給丁的117F 12/07 09:58
hiroshi6557: 支持民主夜市開幕118F 12/07 09:58
Ajisai: 其實我還不覺得在10票內這麼少 但應該不到3000票這麼多119F 12/07 10:00
SaintsRow: J守中120F 12/07 10:02
max0928895: 請問你提出選務瑕疵跟你能不能勝選有甚麼關係?121F 12/07 10:03
limitex: XDDDD122F 12/07 10:04
maesww: 夜市什麼時候要開?想吃便當123F 12/07 10:06
Tawara: 好了啦 深蹲24年站不起來不丟臉啊124F 12/07 10:06
shinobunodok: 鍋貼老闆都收攤了 其邁都在揪咖啡團了 他還在1124125F 12/07 10:06
kamener: 這種小家子性格是不會實現諾言退出政壇的126F 12/07 10:07
Templar47: 掰掰了,慢走不送。         存錢蓋一座時光機較划算啦127F 12/07 10:09
espresso1: 要怎麼樣隨你們,但請自己出錢,不要花納稅人的錢128F 12/07 10:09
mihono: Let's go party party all night Oh oh oh oh129F 12/07 10:09
tanby: 帶身分證就可以投票了 蓋手印簽名都可以投票130F 12/07 10:10
linceass: 蓋指紋領票有甚麼不對嗎?131F 12/07 10:10
Ajisai: 樓上 我推文有寫 想知道可以爬推文132F 12/07 10:11
joe00477: 丁丁就是要贏133F 12/07 10:12
a4302f: 國民黨輸不起 2020滅國民黨134F 12/07 10:13
bob871215201: 為什麼不可以蓋手印?135F 12/07 10:16
robert7111: 擊潰丁守中136F 12/07 10:16
kimky: 仔細想想 印章跟手印 哪個比較切實? 印章也沒有東西可以137F 12/07 10:17
kimky: 核對 指紋如果有疑慮還可以比對是不是本人 印章就比較令人
kimky: 匪夷所思
Joeng: 蓋手印,後面兩格要有選務人員蓋章啦140F 12/07 10:17
wen1045: 最後結果如果是柯還多幾票,那就真的好笑了141F 12/07 10:19
yniori: 本來就可以蓋指印,丁的律師程度堪慮142F 12/07 10:19
etboiteli: 再驗320次就贏了,支持丁丁驗票143F 12/07 10:20
lmf770410: ㄏ144F 12/07 10:20
qq05: 稅金145F 12/07 10:22
champhon: 擊潰丁守中146F 12/07 10:22
linbsing: 丁丁快直接宣佈選總統啦147F 12/07 10:23
kepley: 深藍選區幾乎都驗完了,票還沒超過柯就代表沒救了吧148F 12/07 10:26
andorles: 週二開不完,因為六日不驗,應該週四149F 12/07 10:26
clover1211: 質疑東質疑西 KMT沒派監察員和監票員嗎 第一天選舉?150F 12/07 10:27
kobe7610: 垃圾一個151F 12/07 10:28
iamsandyliu: 支持全國重選152F 12/07 10:28
leafall: 現在就是藉由驗票然後抹黑選務,之後拿來打訴訟153F 12/07 10:30
a2364983: 我投的時候旁邊很多蓋手印的154F 12/07 10:32
xga00mex: 以內文說法蓋手印的需要本人(或選務?)簽章核實155F 12/07 10:32
xga00mex: 然後選務好像手印蓋完就算了這樣?
vsbrm: 律師:獲得稱號 "擊潰丁守中x2"157F 12/07 10:36
howow: 你既然驗票不就是承認選舉有效158F 12/07 10:36
hodj: 趕快去開夜市啦 廢物159F 12/07 10:36
ak1200: 二度擊潰叮手中160F 12/07 10:41
ASEVE: 蓋手印跟印章領票本來就具同等效力,只要投票要蓋選舉章161F 12/07 10:41
Tatami4931: ㄧ次投票顯出本性162F 12/07 10:42
webberhan: Hahahhhaaha163F 12/07 10:42
pingwawa: 擊潰丁守中164F 12/07 10:42
F04E: 一定是減10票, 所以才不敢明講... 少拿300惹 QQ165F 12/07 10:43
OOQ: 蓋手印可以 是在講選務人員沒有覆核蓋章的缺失166F 12/07 10:43
dragon6032: 全臺剩丁丁還在選舉.....QQ167F 12/07 10:43
ThisIsAnID: 中華民國要滅亡了!168F 12/07 10:45
ThisIsAnID: 龍6032 屁咧 嘉義要接力選了
Goldens: 丁丁加油    https://imgur.com/3U6G2oD   拚逆轉勝170F 12/07 10:46
丁丁加油!
[圖]
 
Goldens:171F 12/07 10:46
Aliensoul: https://i.imgur.com/HDZo1eb.jpg172F 12/07 10:47
[圖]
 
yluok: HaHaHaHa173F 12/07 10:47
albert1229: 只有輸不起174F 12/07 10:47
s0450336: 輸不得175F 12/07 10:48
skygray2: 不在乎輸贏,只在乎輸不起176F 12/07 10:48
sixis: 支持開夜市!!猶記得04當時正在準備GRE,每天要跑南陽街,177F 12/07 10:49
sixis: 有夜市真的太方便,而且也能在南陽吃ㄆㄨㄣ之外多一種選擇
sixis: ,衷心感謝
ianenix: 丁律不是說1箱3票就逆轉了嗎 再做夢阿180F 12/07 10:51
analogdesign: 醒醒吧丁丁,你這輩子沒那個命當台北市長啦181F 12/07 10:52
kmes504007: 可憐 早就沒機會了182F 12/07 10:52
Neltharion: 掰 鬧夠了吧183F 12/07 10:54
tim0603: 我在新北蓋手印領票的耶 新北也要來驗一下嗎XD184F 12/07 10:54
leveger0903: subuki185F 12/07 10:55
stoneofsea: 是不是輸不起啊186F 12/07 10:57
ywr: 蓋手印可以,第一要清晰,最重要的是後面要有兩位選監人員會187F 12/07 10:59
ywr: 章,而不是只有手印
qmzoak: 丁丁的未來 在驗票中189F 12/07 10:59
robocon: 主戰場?丁丁哪有什麼主戰場190F 12/07 11:00
robocon: 根本戰不起來
kkkk0923: 丁丁表示:沒有輸不起,只有選輸無效192F 12/07 11:01

--
※ 看板: Gossiping 文章推薦值: 0 目前人氣: 0 累積人氣: 3175 
※ 本文也出現在看板: K_hot
( ̄︶ ̄)b sandy1108 說讚! ( ̄︿ ̄)p fishbone1965 說瞎!
1樓 時間: 2018-12-07 10:01:56
  12-07 10:01
沒帶印章就是蓋手指印丫,這有什麼好說嘴的......這次去投時我前面那二口子就是沒帶印章,所以都是按指印的
2樓 時間: 2018-12-07 10:23:21
  12-07 10:23
丁丁現在是看到像根浮木的東西
都先抓住再說了
3樓 時間: 2018-12-07 11:02:04
  12-07 11:02
【北市驗票過半 丁翻盤恐無望】 這寫得太武斷  給人爽的嗎?  為什麼人要那麼自戀??
只要有一個箱子出問題,那就是問題。   總不能說 90%的箱子沒問題  所以此次沒問題。
4樓 時間: 2018-12-07 11:04:38
  12-07 11:04
感謝投票當天辛苦的選務人員們。
5樓 時間: 2018-12-07 11:09:43
  12-07 11:09
誰跟你不超過十票 是十一票!!
然後是柯增加...
6樓 時間: 2018-12-07 11:16:11
   (編輯過)
自爽的應該是還在期望一個箱子會出問題的那個吧,只能說趁早崩潰趁早療傷
1個箱子出問題 = 全部箱子都有問題?
1個箱子出問題 = 這整箱的票全部無條件歸給丁?
1個箱子出問題 = 這咖不算數裡面100%都是投柯的,而且有三千多票?
1個箱子就僅代表那1個箱子有問題阿,至於是什麼問題另當別論,但其餘99%已經驗過沒問題的就沒問題,不會因為1個箱子就沒問題的變成有問題好嗎....
你以為是貨櫃在抽檢膩...
7樓 時間: 2018-12-07 11:19:18
  12-07 11:19
重選完再驗票~驗票完再重選~選完再驗~驗完再選~直至2022~
8樓 時間: 2018-12-07 11:23:23
  12-07 11:23
支持丁丁選總統
9樓 時間: 2018-12-07 11:32:11
  12-07 11:32
真是很難看 勞民又傷財
10樓 時間: 2018-12-07 12:26:40
   (編輯過)
kk0816  你看得懂字詞句子嗎?  我在說 記者寫得很武斷,報給你爽。  然後你說我很期待一個箱子會出問題的?   你哪條筋有問題?
11樓 時間: 2018-12-07 13:00:49
  12-07 13:00
錯過了可以留給民眾好印象的第一時間 接下來"輸不起"這三個字將跟你一輩子, 臉是自己丟的, 自盡吧丁丁
12樓 時間: 2018-12-07 13:27:24
  12-07 13:27
阿拉丁酸宗痛
13樓 時間: 2018-12-07 15:52:12
  12-07 15:52
···
小丁丁要趕快邀民進黨落選的一起告啊!!!
14樓 時間: 2018-12-07 16:22:01
  12-07 16:22
丁酸宗痛全力支持(剩蚊:那我呢??)
r)回覆 e)編輯 d)刪除 M)收藏 ^x)轉錄 同主題: =)首篇 [)上篇 ])下篇